Raleigh, NC

6:04 AM EDT on October 01, 2016 (GMT -0400)
Raleigh-Durham International

Weather History for KRDU - February, 2014

Change the Weather History Date:

Sunday, February 23, 2014

  Actual Average Record
Temperature  
Mean Temperature 51 °F 46 °F  
Max Temperature 67 °F 57 °F 79 °F (1980)
Min Temperature 34 °F 35 °F 7 °F (1978)
Degree Days  
Heating Degree Days 14 19  
Month to date heating degree days 479 484  
Since 1 July heating degree days 2583 2481  
Cooling Degree Days 0 0  
Month to date cooling degree days 0 0  
Year to date cooling degree days 0 0  
Moisture  
Dew Point 34 °F    
Average Humidity 53    
Maximum Humidity 76    
Minimum Humidity 29    
Precipitation  
Precipitation 0.00 in 0.12 in 1.55 in (1984)
Month to date precipitation 3.00 2.62  
Year to date precipitation 4.96 6.12  
Snow  
Snow 0.00 in 0.00 in 2.50 in (1901)
Month to date snowfall 3.7 1.6  
Since 1 July snowfall 5.6 5.2  
Snow Depth 0.00 in    
Sea Level Pressure  
Sea Level Pressure 30.01 in    
Wind  
Wind Speed 6 mph (SW)    
Max Wind Speed 21 mph    
Max Gust Speed 25 mph    
Visibility 10 miles    
Events      
T = Trace of Precipitation, MM = Missing Value Source: NWS Daily Summary

Daily Weather History Graph

Daily Weather History Graph

Search for Another Location

Airport or City:

Trip Planner

Search our weather history database for the weather conditions in past years. The results will help you decide how hot, cold, wet, or windy it might be!

Date:

Astronomy

Feb. 23, 2014 Rise Set
Actual Time 6:52 AM EST 6:04 PM EST
Civil Twilight 6:27 AM EST 6:30 PM EST
Nautical Twilight 5:57 AM EST 7:00 PM EST
Astronomical Twilight 5:27 AM EST 7:29 PM EST
Moon 1:43 AM EST (2/23) 12:11 PM EST (2/23)
Length of Visible Light 12h 03m
Length of Day
11h 11m
Last Quarter, 39% of the Moon is Illuminated
Feb 23
Last Quarter
Mar 1
New
Mar 8
First Quarter
Mar 16
Full
Mar 23
Last Quarter

Hourly Weather History & Observations

Time (EST) Temp. Dew Point Humidity Pressure Visibility Wind Dir Wind Speed Gust Speed Precip Events Conditions
12:51 AM 42.1 °F 28.0 °F 58% 30.10 in 10.0 mi Calm Calm - N/A   Clear
1:51 AM 39.9 °F 28.9 °F 65% 30.10 in 10.0 mi Calm Calm - N/A   Partly Cloudy
2:51 AM 37.0 °F 28.9 °F 73% 30.09 in 10.0 mi Calm Calm - N/A   Scattered Clouds
3:51 AM 37.0 °F 28.9 °F 73% 30.08 in 10.0 mi Calm Calm - N/A   Scattered Clouds
4:51 AM 37.0 °F 30.0 °F 76% 30.08 in 10.0 mi Calm Calm - N/A   Scattered Clouds
5:51 AM 37.0 °F 30.9 °F 79% 30.09 in 10.0 mi Calm Calm - N/A   Scattered Clouds
6:51 AM 39.0 °F 30.9 °F 73% 30.09 in 10.0 mi Calm Calm - N/A   Mostly Cloudy
7:51 AM 41.0 °F 33.1 °F 73% 30.10 in 10.0 mi Calm Calm - N/A   Mostly Cloudy
8:51 AM 48.0 °F 35.1 °F 61% 30.10 in 10.0 mi SW 5.8 mph - N/A   Scattered Clouds
9:51 AM 55.0 °F 36.0 °F 49% 30.09 in 10.0 mi WSW 4.6 mph - N/A   Mostly Cloudy
10:51 AM 60.1 °F 33.1 °F 36% 30.06 in 10.0 mi SW 9.2 mph - N/A   Mostly Cloudy
11:51 AM 61.0 °F 35.1 °F 38% 30.03 in 10.0 mi SW 11.5 mph - N/A   Mostly Cloudy
12:51 PM 63.0 °F 36.0 °F 37% 30.02 in 10.0 mi WSW 17.3 mph - N/A   Mostly Cloudy
1:51 PM 66.0 °F 35.1 °F 32% 29.98 in 10.0 mi WSW 13.8 mph - N/A   Mostly Cloudy
2:51 PM 66.9 °F 35.1 °F 31% 29.95 in 10.0 mi WSW 13.8 mph - N/A   Mostly Cloudy
3:51 PM 66.9 °F 34.0 °F 30% 29.94 in 10.0 mi WSW 12.7 mph 20.7 mph N/A   Mostly Cloudy
4:51 PM 64.9 °F 34.0 °F 32% 29.92 in 10.0 mi SW 11.5 mph - N/A   Mostly Cloudy
5:51 PM 62.1 °F 35.1 °F 37% 29.92 in 10.0 mi SSW 10.4 mph - N/A   Mostly Cloudy
6:51 PM 60.1 °F 36.0 °F 41% 29.91 in 10.0 mi SSW 9.2 mph - N/A   Mostly Cloudy
7:51 PM 57.9 °F 37.0 °F 46% 29.91 in 10.0 mi SW 10.4 mph - N/A   Mostly Cloudy
8:51 PM 55.0 °F 37.9 °F 53% 29.90 in 10.0 mi SSW 8.1 mph - N/A   Mostly Cloudy
9:51 PM 52.0 °F 37.9 °F 59% 29.90 in 10.0 mi WSW 4.6 mph - N/A   Scattered Clouds
10:51 PM 50.0 °F 37.9 °F 63% 29.89 in 10.0 mi SW 4.6 mph - N/A   Scattered Clouds
11:51 PM 48.9 °F 39.0 °F 69% 29.89 in 10.0 mi SW 6.9 mph - N/A   Scattered Clouds